Regional Weather Roundup
Issued by NWS

Home | Current Version | Previous Version | Graphics & Text | Print | Product List | Glossary On
Versions: 1 2 3 4 5 6 7 8 9 10 11 12 13 14 15 16 17 18 19 20 21 22 23 24 25 26 27 28 29 30 31 32 33 34 35 36 37 38 39 40 41 42 43 44 45 46 47 48 49 50
000
ASUS43 KLOT 271400
RWRIL

ILLINOIS REGIONAL WEATHER ROUNDUP
NATIONAL WEATHER SERVICE CHICAGO/ROMEOVILLE IL
800 AM CST THU NOV 27 2014

NOTE: "FAIR" INDICATES FEW OR NO CLOUDS BELOW 12,000 FEET WITH NO
SIGNIFICANT WEATHER AND/OR OBSTRUCTIONS TO VISIBILITY.

* THESE STATIONS ARE NOT UNDER NWS QUALITY CONTROL. THEY ALSO MAY NOT
  REPORT WEATHER SUCH AS PRECIPITATION OR FOG.

ILZ001-002-007-009-015-016-024-271500-
NORTHWEST ILLINOIS

CITY           SKY/WX    TMP DP  RH WIND       PRES   REMARKS
MOLINE         LGT SNOW  23  18  81 NW17G24   30.40R WCI   9
STERLING*      MOCLDY    25  19  80 NW10      30.35S WCI  15
$$

ILZ003-004-008-010-011-017-018-271500-
NORTH CENTRAL ILLINOIS

CITY           SKY/WX    TMP DP  RH WIND       PRES   REMARKS
ROCKFORD       FLURRIES  24  18  77 NW12      30.35R WCI  13
$$

ILZ005-006-012>014-019>023-271500-
NORTHEAST ILLINOIS

CITY           SKY/WX    TMP DP  RH WIND       PRES   REMARKS
CHICAGO-OHARE  CLOUDY    24  18  77 NW12      30.29R WCI  13
CHICAGO-MIDWAY CLOUDY    26  20  77 W8        30.30R WCI  18
AURORA         CLOUDY    23  18  81 NW13      30.32R HAZE    WCI  11
WAUKEGAN       CLOUDY    22  17  81 NW10      30.27R WCI  11
DUPAGE AIRPORT CLOUDY    23  18  81 NW13      30.30R WCI  11
WHEELING       CLOUDY    24  19  81 NW12      30.31R HAZE    WCI  13
NORTHERLY ISL    N/A     26  21  81 W10         N/A  WCI  16
$$

LMZ740>746-271500-
SOUTHERN LAKE MICHIGAN

STATION/POSITION SKY/WX   TEMP    WIND        PRES    VSBY  WAVE
                          AIR SEA DIR/SP/G                  HT/PER
                          (F)     (DEG/KT/KT) (MB)    (MI)  (FT/S)
SOUTHERN BUOY              31 42  310/ 17/ 21 1023.7R         4/ 5
WAUKEGAN HARBOR            23     310/ 10/ 15   N/A
HARRISON CRIB              25     300/ 14/ 17   N/A
BURNHAM HARBOR             26     250/  7/ 14   N/A
CALUMET HARBOR             25     260/  6/ 12 1024.0R
MICHIGAN CITY              30     300/ 20/ 22   N/A
$$

ILZ025>027-034>036-040-047-049-050-058-095>099-271500-
WEST-CENTRAL ILLINOIS

CITY           SKY/WX    TMP DP  RH WIND       PRES   REMARKS
QUINCY         CLOUDY    26  18  71 NW20      30.44R WCI  12
$$

ILZ028>032-037-038-041>044-048-051>054-059>061-271500-
CENTRAL ILLINOIS

CITY           SKY/WX    TMP DP  RH WIND       PRES   REMARKS
DECATUR        CLOUDY    26  21  81 NW15      30.38R HAZE    WCI  14
PEORIA         CLOUDY    27  20  75 NW6       30.38S WCI  20
SPRINGFIELD    CLOUDY    27  22  81 NW12      30.41R WCI  17
TAYLORVILLE    NOT AVBL
$$

ILZ033-039-045-046-055>057-062-063-271500-
EAST-CENTRAL ILLINOIS

CITY           SKY/WX    TMP DP  RH WIND       PRES   REMARKS
CHAMPAIGN      PTSUNNY   24  20  84 NW14      30.35R FOG     WCI  12
MATTOON        CLOUDY    24  20  84 NW14      30.36R WCI  12
$$

ILZ079-100>102-271500-
SOUTHWEST ILLINOIS

CITY           SKY/WX    TMP DP  RH WIND       PRES   REMARKS
ALTON          CLOUDY    28  25  86 NW15G21   30.44R FOG     WCI  17
BELLEVILLE     MIX PCPN  28  27  93 NW15      30.44R WCI  17
CAHOKIA*       CLOUDY    31  25  78 NW22G28   30.46R WCI  18
$$

ILZ064>066-069>071-074>076-080>082-084>086-088>090-092>094-271500-
SOUTH-CENTRAL ILLINOIS

CITY           SKY/WX    TMP DP  RH WIND       PRES   REMARKS
CARBONDALE     CLOUDY    29  22  75 N16G23    30.45R WCI  17
MARION         CLOUDY    30  23  74 NW12      30.45R WCI  21
MT. VERNON     PTSUNNY   27  19  74 CALM      30.43R
$$

ILZ067-068-072-073-078-083-087-091-271500-
SOUTHEAST ILLINOIS

CITY           SKY/WX    TMP DP  RH WIND       PRES   REMARKS
LAWRENCEVILLE  SUNNY     25  21  85 NW16      30.38R FOG     WCI  12
$$

ABBREVIATIONS USED IN REMARKS
   TC - TEMPERATURE IN CELSIUS
  WCI - WIND CHILL INDEX
   HX - HEAT INDEX
  VSB - VISIBILITY
$$




USA.gov is the U.S. government's official web portal to all federal, state and local government web resources and services.